Back to catalog

NOAA 16 DEB

AliveSSO
NORAD 41264·DEBRIS·🇺🇸 United States

Launched Sep 21, 2000 from Vandenberg Space Force Base

Loading…

Next Passes (next 24 hours)

TLE

FreshSource: Space-Track

Epoch: Sep 13, 2026, 20:56 UTC

1 41264U 00055FQ  26256.87273912  .00001925  00000-0  79509-3 0  9997
2 41264  98.6210 311.0082 0003705 171.7919 188.3323 14.27898082554483

Track NOAA 16 DEB in real time with AllMySat

Download on the App Store